|
NORAD ID: 34135 Int'l Code: 1993-036LG
Perigee: 373.3 km
Apogee: 450.8 km
Inclination: 74.0 °
Period: 92.7 minutes
Semi major axis: 6783 km
Launch date: June 16, 1993
Source: Commonwealth of Independent States (former USSR) (CIS)
Note: This is SATELLITE DEBRIS
Two Line Element Set (TLE):
1 34135U 93036LG 13136.82676721 .00300920 00000-0 41763-2 0 6400
2 34135 074.0433 119.1808 0057156 284.5747 147.9782 15.54057387232143
Source:
NASA's NSSDC Master Catalog entry for COSMOS 2251 DEB
|